Le nostre stazioni meteo in Italia

Pubblicità
Il mio iltempo24.it
Lampedusa, Italia (16490): Temperatura & dewpoint: 12.01.2020 09:00:00 - 18.01.2020 09:00:00 (CET)Lampedusa, Italia (16490): velocità del vento: 12.01.2020 09:00:00 - 18.01.2020 09:00:00 (CET)Lampedusa, Italia (16490): direzione del vento: 12.01.2020 09:00:00 - 18.01.2020 09:00:00 (CET)Lampedusa, Italia (16490): reduced air pressure: 12.01.2020 09:00:00 - 18.01.2020 09:00:00 (CET)Lampedusa, Italia (16490): visibility: 12.01.2020 09:00:00 - 18.01.2020 09:00:00 (CET)Lampedusa, Italia (16490): precipitazioni: 12.01.2020 09:00:00 - 18.01.2020 09:00:00 (CET)
Data & Tempo tt [°C] td [°C] ff [km/h] ff [kn] dd ppp [hPa] vv [km] rr [mm]
18.01.2020 09:00:00 15,0 11,0 21 11 NNO - 10 -
18.01.2020 08:00:00 14,0 11,0 16 9 NNO - 10 -
18.01.2020 07:00:00 13,6 10,0 15 8 NNO 1028,0 10 -
18.01.2020 06:00:00 13,0 10,0 13 7 NO - 10 -
18.01.2020 05:00:00 13,0 10,0 11 6 NO - 10 -
18.01.2020 04:00:00 13,3 9,5 13 7 NO 1027,7 10 0,0
18.01.2020 03:00:00 15,0 10,0 21 11 NO - 10 -
18.01.2020 02:00:00 15,0 6,0 16 9 NO - 10 -
18.01.2020 01:00:00 14,8 5,8 24 13 NNO 1028,1 10 -
18.01.2020 00:00:00 14,0 9,0 16 9 NNO - 10 -
17.01.2020 23:00:00 14,0 9,0 18 10 NNO - 10 -
17.01.2020 22:00:00 14,4 7,5 16 9 NO 1028,6 10 0,0
17.01.2020 21:00:00 14,0 7,0 15 8 NO - 10 -
17.01.2020 20:00:00 14,0 7,0 16 9 NO - 10 -
17.01.2020 19:00:00 13,9 7,5 15 8 NO 1028,5 10 -
17.01.2020 18:00:00 13,0 8,0 11 6 ONO - 10 -
17.01.2020 17:00:00 14,0 8,0 15 8 ONO - 10 -
17.01.2020 16:00:00 14,7 7,4 16 9 ONO 1027,5 10 0,0
17.01.2020 15:00:00 15,0 7,0 18 10 ONO - 10 -
17.01.2020 14:00:00 15,0 7,0 18 10 NO - 10 -
17.01.2020 13:00:00 16,0 8,0 21 11 NO - 10 -
17.01.2020 12:00:00 16,0 9,0 18 10 ONO - 10 -
17.01.2020 11:00:00 15,0 8,0 16 9 NNO - 10 -
17.01.2020 10:00:00 15,0 9,0 13 7 NO - 10 -
17.01.2020 09:00:00 - - - - - - - -
17.01.2020 08:00:00 - - - - - - - -
17.01.2020 07:00:00 13,0 7,0 9 5 ONO - 10 -
17.01.2020 06:00:00 13,0 7,0 13 7 NO - 10 -
17.01.2020 05:00:00 14,0 8,0 15 8 NO - 10 -
17.01.2020 04:00:00 12,4 8,0 9 5 ONO 1028,1 10 0,0
17.01.2020 03:00:00 12,0 8,0 9 5 ONO - 10 -
17.01.2020 02:00:00 12,0 7,0 13 7 ONO - 10 -
17.01.2020 01:00:00 12,3 6,8 13 7 O 1028,7 10 -
17.01.2020 00:00:00 - - - - - - - -
16.01.2020 23:00:00 12,0 7,0 11 6 O - 10 -
16.01.2020 22:00:00 12,6 7,7 11 6 O 1029,2 10 0,0
16.01.2020 21:00:00 13,0 8,0 9 5 ONO - 10 -
16.01.2020 20:00:00 13,0 8,0 9 5 ONO - 10 -
16.01.2020 19:00:00 13,0 8,2 8 4 ONO 1029,1 10 -
16.01.2020 18:00:00 14,0 8,0 9 5 NO - 10 -
16.01.2020 17:00:00 15,0 9,0 13 7 NNO - 10 -
16.01.2020 16:00:00 14,7 8,7 11 6 NO 1028,3 10 0,0
16.01.2020 15:00:00 15,0 8,0 15 8 NNO - 10 -
16.01.2020 14:00:00 15,0 9,0 15 8 NNO - 10 -
16.01.2020 13:00:00 15,3 8,2 15 8 NNO 1029,1 10 -
16.01.2020 12:00:00 15,0 8,0 15 8 NNO - 10 -
16.01.2020 11:00:00 15,0 9,0 16 9 NNO - 10 -
16.01.2020 10:00:00 14,8 8,2 13 7 NO 1030,4 10 0,0
16.01.2020 09:00:00 14,0 8,0 9 5 NO - 10 -
16.01.2020 08:00:00 13,0 8,0 9 5 NNO - 10 -
16.01.2020 07:00:00 12,7 8,1 8 4 NO 1029,2 35 -
16.01.2020 06:00:00 13,0 8,0 9 5 NO - 10 -
16.01.2020 05:00:00 13,0 8,0 9 5 NO - 10 -
16.01.2020 04:00:00 11,9 7,3 8 4 NO 1028,6 10 0,0
16.01.2020 03:00:00 12,0 8,0 8 4 ONO - 10 -
16.01.2020 02:00:00 13,0 8,0 8 4 ONO - 10 -
16.01.2020 01:00:00 13,0 8,0 5 3 ONO - 10 -
16.01.2020 00:00:00 13,0 9,0 5 3 ONO - 10 -
15.01.2020 23:00:00 13,0 9,0 4 2 ONO - 10 -
15.01.2020 22:00:00 13,0 8,4 4 2 NO 1029,6 10 0,0
15.01.2020 21:00:00 13,0 9,0 5 3 NNO - 10 -
15.01.2020 20:00:00 13,0 8,0 5 3 NNO - 10 -
15.01.2020 19:00:00 13,6 8,7 2 1 N 1029,0 10 -
15.01.2020 18:00:00 14,0 8,0 5 3 NNO - 10 -
15.01.2020 17:00:00 15,0 8,0 9 5 NNE - 10 -
15.01.2020 16:00:00 15,1 8,5 8 4 N 1027,7 10 0,0
15.01.2020 15:00:00 15,0 8,0 8 4 N - 10 -
15.01.2020 14:00:00 15,0 8,0 9 5 NNE - 10 -
15.01.2020 13:00:00 15,3 8,6 11 6 N 1027,9 10 -
15.01.2020 12:00:00 15,0 8,0 9 5 N - 10 -
15.01.2020 11:00:00 15,0 8,0 11 6 NNO - 10 -
15.01.2020 10:00:00 15,0 9,0 11 6 N - 10 -
15.01.2020 09:00:00 14,0 9,0 9 5 NNO - 10 -
15.01.2020 08:00:00 13,0 9,0 9 5 N - 10 -
15.01.2020 07:00:00 13,3 8,7 11 6 N 1027,4 10 -
15.01.2020 06:00:00 13,0 9,0 9 5 N - 10 -
15.01.2020 05:00:00 13,0 9,0 9 5 N - 10 -
15.01.2020 04:00:00 13,5 9,0 11 6 N 1026,7 10 0,0
15.01.2020 03:00:00 13,0 9,0 13 7 N - 10 -
15.01.2020 02:00:00 14,0 9,0 15 8 N - 10 -
15.01.2020 01:00:00 13,7 9,1 13 7 N 1027,0 10 -
15.01.2020 00:00:00 14,0 9,0 13 7 N - 10 -
14.01.2020 23:00:00 14,0 9,0 15 8 N - 10 -
14.01.2020 22:00:00 14,2 9,3 13 7 NNE 1027,2 10 0,0
14.01.2020 21:00:00 14,0 9,0 18 10 NNE - 10 -
14.01.2020 20:00:00 14,0 9,0 18 10 NNE - 10 -
14.01.2020 19:00:00 14,4 9,2 18 10 NNE 1026,5 10 -
14.01.2020 18:00:00 14,0 10,0 18 10 NNE - 10 -
14.01.2020 17:00:00 15,0 10,0 21 11 NNE - 10 -
14.01.2020 16:00:00 15,0 10,7 22 12 NNE 1025,0 10 0,0
14.01.2020 15:00:00 15,0 10,0 22 12 NE - 10 -
14.01.2020 14:00:00 16,0 12,0 24 13 NE - 10 -
14.01.2020 13:00:00 15,4 10,2 26 14 NE 1024,6 10 -
14.01.2020 12:00:00 15,0 12,0 26 14 NE - 10 -
14.01.2020 11:00:00 16,0 10,0 21 11 NNE - 10 -
14.01.2020 10:00:00 15,1 10,4 16 9 NNE 1025,6 10 0,0
14.01.2020 09:00:00 14,0 10,0 15 8 NE - 10 -
14.01.2020 08:00:00 14,0 10,0 15 8 NE - 10 -
14.01.2020 07:00:00 13,6 9,4 15 8 NE 1024,0 10 -
14.01.2020 06:00:00 14,0 10,0 11 6 ENE - 10 -
14.01.2020 05:00:00 14,0 9,0 11 6 E - 10 -
14.01.2020 04:00:00 13,6 9,5 15 8 E 1023,1 10 0,0
14.01.2020 03:00:00 13,0 10,0 21 11 ESE - 10 -
14.01.2020 02:00:00 15,0 9,0 16 9 ENE - 10 -
14.01.2020 01:00:00 14,6 10,0 13 7 ENE 1023,1 10 -
14.01.2020 00:00:00 14,0 8,0 15 8 ENE - 10 -
13.01.2020 23:00:00 14,0 9,0 16 9 ENE - 10 -
13.01.2020 22:00:00 14,0 10,6 26 14 ENE 1023,0 10 0,0
13.01.2020 21:00:00 14,0 10,0 15 8 NNE - 10 -
13.01.2020 20:00:00 14,0 10,0 15 8 NE - 10 -
13.01.2020 19:00:00 13,7 10,8 16 9 NNE 1022,7 - -
13.01.2020 18:00:00 14,0 10,0 22 12 NNE - 10 -
13.01.2020 17:00:00 14,0 10,0 18 10 NE - 10 -
13.01.2020 16:00:00 13,8 9,4 22 12 NE 1021,2 10 0,0
13.01.2020 15:00:00 14,0 9,0 18 10 NE - 10 -
13.01.2020 14:00:00 14,0 9,0 16 9 ENE - 10 -
13.01.2020 13:00:00 - - - - - - - -
13.01.2020 12:00:00 12,0 10,0 28 15 SE - 10 -
13.01.2020 11:00:00 14,0 9,0 15 8 E - 10 -
13.01.2020 10:00:00 14,6 8,9 26 14 E 1022,3 10 0,0
13.01.2020 09:00:00 14,0 9,0 22 12 E - 10 -
13.01.2020 08:00:00 14,0 10,0 21 11 E - 10 -
13.01.2020 07:00:00 - - - - - - - -
13.01.2020 06:00:00 13,0 10,0 22 12 ESE - 10 -
13.01.2020 05:00:00 14,0 10,0 31 17 SE - 10 -
13.01.2020 04:00:00 14,7 10,2 28 15 E 1021,5 10 0,0
13.01.2020 03:00:00 15,0 10,0 28 15 E - 10 -
13.01.2020 02:00:00 15,0 10,0 28 15 E - 10 -
13.01.2020 01:00:00 14,7 9,9 28 15 E 1022,0 10 -
13.01.2020 00:00:00 15,0 10,0 22 12 E - 10 -
12.01.2020 23:00:00 15,0 10,0 22 12 E - 10 -
12.01.2020 22:00:00 14,4 9,4 21 11 ENE 1022,8 10 0,0
12.01.2020 21:00:00 14,0 9,0 22 12 ENE - 10 -
12.01.2020 20:00:00 14,0 9,0 18 10 ENE - 10 -
12.01.2020 19:00:00 13,8 9,5 21 11 ENE 1022,6 10 -
12.01.2020 18:00:00 14,0 10,0 18 10 E - 10 -
12.01.2020 17:00:00 - - - - - - - -
12.01.2020 16:00:00 14,5 10,2 13 7 ENE 1021,6 10 0,0
12.01.2020 15:00:00 14,0 10,0 9 5 NNE - 10 -
12.01.2020 14:00:00 14,0 10,0 13 7 NNE - 10 -
12.01.2020 13:00:00 14,0 10,1 11 6 N 1022,2 10 -
12.01.2020 12:00:00 14,0 10,0 9 5 N - 10 -
12.01.2020 11:00:00 12,0 10,0 11 6 ONO - 10 -
12.01.2020 10:00:00 13,0 9,0 22 12 OSO - 10 -
12.01.2020 09:00:00 14,0 10,0 11 6 E - 10 -

tt = Temperatura
td = dewpoint
ff = velocità del vento
dd = direzione del vento
ppp = reduced air pressure
vv = visibility
rr = precipitazioni

Stazioni seguenti

WeatherPro
AMSI
MeteoEarth